^^
Station Historical Data
Daily Summary for Nil La, TWC- Units:  English    Metric   Both
« Previous Day
Next Day »
Daily Weekly Monthly Yearly Custom
  High: Low: Average:
Temperature: TemperatureF °F 64.2 °F 75.2 °F
Dew Point: DewpointF °F 44.6 °F 52.8 °F
Humidity: Humidity% 22% 48%
Wind Speed: WindSpeedMPHmph 0.0mph 1.4mph
Wind Gust: WindSpeedGustMPHmph - -
Wind- - South
Pressure: PressureIn in 29.47 in -
Precipitation: 0.00 in    
Historical Graphs
 
 
Tabular Data for Nil La, TWC-
Time Temperature Dew Point Pressure Wind Wind Speed Wind Gust Humidity Rainfall Rate (Hourly) solar Conditions
TemperatureF °F DewpointF °F PressureIn in Calm     Humidity% HourlyPrecipIn in SolarRadiationWatts/m^2 W/m2 Conditions
00:01 72.7 °F 51.3 °F 29.56 in Calm   7.0 mph 47% 0.00 in 0.0 W/m2
00:06 72.9 °F 51.4 °F 29.56 in ESE 2.0 mph 6.0 mph 47% 0.00 in 0.0 W/m2
00:12 72.9 °F 50.9 °F 29.56 in SE 4.9 mph 7.0 mph 46% 0.00 in 0.0 W/m2
00:17 72.9 °F 50.9 °F 29.56 in Calm   6.0 mph 46% 0.00 in 0.0 W/m2
00:22 72.9 °F 50.9 °F 29.57 in SSE 2.0 mph 3.0 mph 46% 0.00 in 0.0 W/m2
00:27 72.9 °F 50.9 °F 29.57 in Calm   3.0 mph 46% 0.00 in 0.0 W/m2
00:32 72.9 °F 50.9 °F 29.56 in SSE 0.9 mph 4.0 mph 46% 0.00 in 0.0 W/m2
00:37 72.9 °F 50.9 °F 29.56 in Calm   1.0 mph 46% 0.00 in 0.0 W/m2
00:42 72.7 °F 50.7 °F 29.56 in SW 0.9 mph 7.0 mph 46% 0.00 in 0.0 W/m2
00:47 72.7 °F 50.7 °F 29.56 in Calm   2.0 mph 46% 0.00 in 0.0 W/m2
00:52 72.5 °F 51.1 °F 29.56 in Calm   1.0 mph 47% 0.00 in 0.0 W/m2
00:58 72.3 °F 50.9 °F 29.56 in Calm   3.0 mph 47% 0.00 in 0.0 W/m2
01:03 72.1 °F 50.7 °F 29.56 in SSW 0.9 mph 4.0 mph 47% 0.00 in 0.0 W/m2
01:08 72.1 °F 50.2 °F 29.55 in Calm   5.0 mph 46% 0.00 in 0.0 W/m2
01:13 72.1 °F 50.2 °F 29.55 in Calm   3.0 mph 46% 0.00 in 0.0 W/m2
01:18 72.1 °F 50.2 °F 29.55 in SE 2.0 mph 5.0 mph 46% 0.00 in 0.0 W/m2
01:23 72.3 °F 50.4 °F 29.55 in Calm   4.0 mph 46% 0.00 in 0.0 W/m2
01:28 72.3 °F 50.4 °F 29.55 in South 0.9 mph 5.0 mph 46% 0.00 in 0.0 W/m2
01:33 72.3 °F 49.8 °F 29.55 in SSE 6.0 mph 9.0 mph 45% 0.00 in 0.0 W/m2
01:38 72.7 °F 50.2 °F 29.55 in SE 4.9 mph 8.0 mph 45% 0.00 in 0.0 W/m2
01:44 72.7 °F 50.2 °F 29.55 in South 2.0 mph 8.0 mph 45% 0.00 in 0.0 W/m2
01:49 72.7 °F 50.2 °F 29.55 in SSE 0.9 mph 6.0 mph 45% 0.00 in 0.0 W/m2
01:54 72.7 °F 50.2 °F 29.55 in Calm   4.0 mph 45% 0.00 in 0.0 W/m2
01:59 72.7 °F 50.2 °F 29.55 in SSE 2.0 mph 5.0 mph 45% 0.00 in 0.0 W/m2
02:04 72.7 °F 50.2 °F 29.54 in South 4.9 mph 7.0 mph 45% 0.00 in 0.0 W/m2
02:09 72.7 °F 49.5 °F 29.54 in ESE 4.0 mph 6.0 mph 44% 0.00 in 0.0 W/m2
02:14 72.7 °F 50.2 °F 29.54 in SSE 2.0 mph 6.0 mph 45% 0.00 in 0.0 W/m2
02:19 72.5 °F 49.3 °F 29.54 in SSW 2.9 mph 6.0 mph 44% 0.00 in 0.0 W/m2
02:24 72.3 °F 49.8 °F 29.54 in South 2.0 mph 6.0 mph 45% 0.00 in 0.0 W/m2
02:29 72.3 °F 49.8 °F 29.54 in Calm   2.0 mph 45% 0.00 in 0.0 W/m2
02:34 72.1 °F 49.6 °F 29.54 in Calm   2.0 mph 45% 0.00 in 0.0 W/m2
02:40 72.0 °F 49.5 °F 29.54 in ESE 0.9 mph 2.0 mph 45% 0.00 in 0.0 W/m2
02:45 72.0 °F 49.5 °F 29.54 in SE 2.9 mph 5.0 mph 45% 0.00 in 0.0 W/m2
02:50 71.8 °F 49.8 °F 29.54 in Calm   4.0 mph 46% 0.00 in 0.0 W/m2
02:55 71.4 °F 49.6 °F 29.54 in SSE 2.9 mph 4.0 mph 46% 0.00 in 0.0 W/m2
03:00 71.4 °F 49.6 °F 29.53 in SE 4.0 mph 6.0 mph 46% 0.00 in 0.0 W/m2
03:05 71.4 °F 49.6 °F 29.53 in SE 6.0 mph 8.0 mph 46% 0.00 in 0.0 W/m2
03:10 71.4 °F 49.6 °F 29.53 in SE 0.9 mph 2.0 mph 46% 0.00 in 0.0 W/m2
03:15 71.4 °F 49.6 °F 29.53 in SE 2.0 mph 2.0 mph 46% 0.00 in 0.0 W/m2
03:21 71.2 °F 49.5 °F 29.53 in Calm   1.0 mph 46% 0.00 in 0.0 W/m2
03:26 71.1 °F 49.3 °F 29.54 in NE 2.9 mph 5.0 mph 46% 0.00 in 0.0 W/m2
03:31 70.9 °F 49.6 °F 29.53 in Calm   2.0 mph 47% 0.00 in 0.0 W/m2
03:36 70.7 °F 49.5 °F 29.53 in Calm   1.0 mph 47% 0.00 in 0.0 W/m2
03:41 70.5 °F 49.3 °F 29.53 in Calm   2.0 mph 47% 0.00 in 0.0 W/m2
03:46 70.3 °F 49.6 °F 29.53 in Calm   1.0 mph 48% 0.00 in 0.0 W/m2
03:51 70.2 °F 50.2 °F 29.54 in Calm   2.0 mph 49% 0.00 in 0.0 W/m2
03:56 69.6 °F 49.6 °F 29.54 in Calm   2.0 mph 49% 0.00 in 0.0 W/m2
04:01 69.4 °F 50.0 °F 29.54 in Calm     50% 0.00 in 0.0 W/m2
04:06 69.3 °F 50.4 °F 29.53 in NE 2.0 mph 3.0 mph 51% 0.00 in 0.0 W/m2
04:12 69.1 °F 50.2 °F 29.53 in Calm   1.0 mph 51% 0.00 in 0.0 W/m2
04:17 68.7 °F 50.4 °F 29.54 in NE 0.9 mph 1.0 mph 52% 0.00 in 0.0 W/m2
04:22 68.5 °F 50.7 °F 29.53 in Calm   1.0 mph 53% 0.00 in 0.0 W/m2
04:27 68.4 °F 51.1 °F 29.53 in Calm   3.0 mph 54% 0.00 in 0.0 W/m2
04:32 68.2 °F 51.4 °F 29.53 in Calm   3.0 mph 55% 0.00 in 0.0 W/m2
04:37 67.8 °F 51.6 °F 29.53 in Calm   2.0 mph 56% 0.00 in 0.0 W/m2
04:42 67.6 °F 51.4 °F 29.53 in ENE 0.9 mph 3.0 mph 56% 0.00 in 0.0 W/m2
04:47 67.5 °F 51.6 °F 29.54 in Calm   2.0 mph 57% 0.00 in 0.0 W/m2
04:52 67.3 °F 52.0 °F 29.53 in ENE 2.0 mph 3.0 mph 58% 0.00 in 0.0 W/m2
04:57 67.1 °F 51.8 °F 29.53 in ENE 0.9 mph 1.0 mph 58% 0.00 in 0.0 W/m2
05:03 66.9 °F 52.2 °F 29.53 in Calm   1.0 mph 59% 0.00 in 0.0 W/m2
05:08 66.6 °F 52.2 °F 29.53 in Calm   1.0 mph 60% 0.00 in 0.0 W/m2
05:13 66.4 °F 52.2 °F 29.53 in Calm   4.0 mph 60% 0.00 in 0.0 W/m2
05:18 66.0 °F 51.8 °F 29.53 in Calm   3.0 mph 60% 0.00 in 0.0 W/m2
05:23 66.0 °F 51.8 °F 29.53 in Calm     60% 0.00 in 0.0 W/m2
05:28 65.8 °F 52.0 °F 29.53 in Calm   1.0 mph 61% 0.00 in 0.0 W/m2
05:33 65.7 °F 51.8 °F 29.53 in Calm   2.0 mph 61% 0.00 in 0.0 W/m2
05:38 65.7 °F 51.8 °F 29.52 in Calm   1.0 mph 61% 0.00 in 0.0 W/m2
05:43 65.5 °F 52.2 °F 29.52 in Calm   1.0 mph 62% 0.00 in 0.0 W/m2
05:49 65.5 °F 52.2 °F 29.52 in Calm   1.0 mph 62% 0.00 in 0.0 W/m2
05:54 65.1 °F 52.2 °F 29.52 in Calm   1.0 mph 63% 0.00 in 0.0 W/m2
05:59 65.1 °F 52.7 °F 29.52 in Calm     64% 0.00 in 0.0 W/m2
06:04 64.9 °F 52.5 °F 29.52 in Calm   2.0 mph 64% 0.00 in 0.0 W/m2
06:09 64.8 °F 52.7 °F 29.53 in Calm     65% 0.00 in 0.0 W/m2
06:14 64.8 °F 52.7 °F 29.53 in Calm     65% 0.00 in 0.0 W/m2
06:19 64.8 °F 53.1 °F 29.53 in Calm     66% 0.00 in 0.0 W/m2
06:24 64.6 °F 52.9 °F 29.53 in Calm     66% 0.00 in 0.0 W/m2
06:29 64.6 °F 52.9 °F 29.54 in Calm     66% 0.00 in 0.0 W/m2
06:35 64.4 °F 52.9 °F 29.53 in Calm   2.0 mph 66% 0.00 in 0.0 W/m2
06:40 64.4 °F 53.2 °F 29.54 in ENE 0.9 mph 3.0 mph 67% 0.00 in 0.0 W/m2
06:45 64.4 °F 53.6 °F 29.54 in Calm   1.0 mph 68% 0.00 in 0.0 W/m2
06:50 64.4 °F 53.6 °F 29.54 in Calm   3.0 mph 68% 0.00 in 5.0 W/m2
06:55 64.2 °F 53.8 °F 29.54 in ENE 0.9 mph 2.0 mph 69% 0.00 in 9.0 W/m2
07:00 64.2 °F 53.8 °F 29.54 in Calm   1.0 mph 69% 0.00 in 11.0 W/m2
07:05 64.2 °F 53.8 °F 29.54 in Calm   1.0 mph 69% 0.00 in 14.0 W/m2
07:10 64.2 °F 54.3 °F 29.54 in Calm   1.0 mph 70% 0.00 in 16.0 W/m2
07:15 64.2 °F 54.3 °F 29.55 in Calm     70% 0.00 in 18.0 W/m2
07:21 64.2 °F 54.7 °F 29.56 in Calm     71% 0.00 in 19.0 W/m2
07:26 64.2 °F 54.7 °F 29.56 in Calm   1.0 mph 71% 0.00 in 21.0 W/m2
07:31 64.6 °F 55.4 °F 29.56 in ENE 0.9 mph 1.0 mph 72% 0.00 in 23.0 W/m2
07:36 64.8 °F 55.6 °F 29.56 in Calm   3.0 mph 72% 0.00 in 25.0 W/m2
07:41 64.9 °F 55.8 °F 29.56 in Calm   2.0 mph 72% 0.00 in 26.0 W/m2
07:46 65.3 °F 56.5 °F 29.55 in Calm   1.0 mph 73% 0.00 in 28.0 W/m2
07:51 65.7 °F 56.8 °F 29.55 in Calm   2.0 mph 73% 0.00 in 32.0 W/m2
07:56 66.0 °F 57.2 °F 29.55 in East 0.9 mph 2.0 mph 73% 0.00 in 32.0 W/m2
08:01 66.6 °F 57.2 °F 29.55 in Calm   1.0 mph 72% 0.00 in 33.0 W/m2
08:06 66.9 °F 57.6 °F 29.55 in Calm     72% 0.00 in 33.0 W/m2
08:12 67.5 °F 57.7 °F 29.55 in Calm     71% 0.00 in 35.0 W/m2
08:17 68.0 °F 58.3 °F 29.55 in Calm   2.0 mph 71% 0.00 in 37.0 W/m2
08:22 68.5 °F 58.3 °F 29.55 in ENE 0.9 mph 4.0 mph 70% 0.00 in 39.0 W/m2
08:27 69.1 °F 58.5 °F 29.55 in ENE 2.0 mph 2.0 mph 69% 0.00 in 39.0 W/m2
08:32 69.4 °F 58.5 °F 29.55 in Calm   1.0 mph 68% 0.00 in 40.0 W/m2
08:37 70.0 °F 58.5 °F 29.55 in NNE 0.9 mph 3.0 mph 67% 0.00 in 40.0 W/m2
08:42 70.5 °F 58.6 °F 29.55 in Calm   1.0 mph 66% 0.00 in 42.0 W/m2
08:47 71.1 °F 58.6 °F 29.55 in Calm   2.0 mph 65% 0.00 in 46.0 W/m2
08:53 71.4 °F 58.6 °F 29.55 in North 0.9 mph 3.0 mph 64% 0.00 in 58.0 W/m2
08:58 71.8 °F 58.1 °F 29.55 in North 0.9 mph 4.0 mph 62% 0.00 in 478.0 W/m2
09:03 72.1 °F 58.5 °F 29.55 in North 0.9 mph 2.0 mph 62% 0.00 in 501.0 W/m2
09:09 72.7 °F 58.5 °F 29.55 in Calm   1.0 mph 61% 0.00 in 520.0 W/m2
09:14 73.4 °F 58.6 °F 29.55 in West 0.9 mph 1.0 mph 60% 0.00 in 540.0 W/m2
09:19 73.9 °F 58.6 °F 29.55 in Calm   5.0 mph 59% 0.00 in 561.0 W/m2
09:24 74.8 °F 59.0 °F 29.55 in Calm   4.0 mph 58% 0.00 in 578.0 W/m2
09:29 75.6 °F 58.8 °F 29.55 in WSW 2.0 mph 2.0 mph 56% 0.00 in 596.0 W/m2
09:34 76.3 °F 59.0 °F 29.55 in Calm   2.0 mph 55% 0.00 in 612.0 W/m2
09:39 76.5 °F 58.6 °F 29.55 in WSW 0.9 mph 4.0 mph 54% 0.00 in 631.0 W/m2
09:44 76.6 °F 58.8 °F 29.55 in Calm   2.0 mph 54% 0.00 in 643.0 W/m2
09:49 77.2 °F 58.6 °F 29.55 in WNW 2.9 mph 5.0 mph 53% 0.00 in 659.0 W/m2
09:54 77.5 °F 58.5 °F 29.55 in NNW 2.9 mph 5.0 mph 52% 0.00 in 675.0 W/m2
09:59 78.1 °F 58.5 °F 29.55 in WSW 2.0 mph 5.0 mph 51% 0.00 in 691.0 W/m2
10:04 77.9 °F 57.7 °F 29.55 in Calm   4.0 mph 50% 0.00 in 712.0 W/m2
10:10 78.3 °F 57.6 °F 29.55 in Calm   2.0 mph 49% 0.00 in 731.0 W/m2
10:16 78.8 °F 58.1 °F 29.55 in NNW 2.9 mph 4.0 mph 49% 0.00 in 747.0 W/m2
10:21 79.5 °F 58.1 °F 29.55 in NW 0.9 mph 4.0 mph 48% 0.00 in 763.0 W/m2
10:26 80.2 °F 58.1 °F 29.55 in Calm   2.0 mph 47% 0.00 in 777.0 W/m2
10:31 80.8 °F 58.1 °F 29.55 in Calm   4.0 mph 46% 0.00 in 791.0 W/m2
10:36 81.0 °F 57.6 °F 29.54 in North 0.9 mph 4.0 mph 45% 0.00 in 814.0 W/m2
10:42 81.5 °F 57.6 °F 29.54 in Calm   2.0 mph 44% 0.00 in 830.0 W/m2
10:47 81.9 °F 57.7 °F 29.54 in North 0.9 mph 4.0 mph 44% 0.00 in 853.0 W/m2
10:52 82.2 °F 57.6 °F 29.54 in Calm   2.0 mph 43% 0.00 in 863.0 W/m2
10:57 82.4 °F 57.7 °F 29.54 in WSW 0.9 mph 5.0 mph 43% 0.00 in 872.0 W/m2
11:02 82.8 °F 56.7 °F 29.54 in Calm   3.0 mph 41% 0.00 in 888.0 W/m2
11:08 82.9 °F 57.6 °F 29.53 in Calm   1.0 mph 42% 0.00 in 905.0 W/m2
11:13 83.5 °F 57.4 °F 29.53 in WSW 2.9 mph 6.0 mph 41% 0.00 in 942.0 W/m2
11:18 83.7 °F 56.8 °F 29.53 in SSW 4.0 mph 5.0 mph 40% 0.00 in 932.0 W/m2
11:24 83.8 °F 57.0 °F 29.53 in Calm   7.0 mph 40% 0.00 in 962.0 W/m2
11:30 84.0 °F 55.8 °F 29.52 in WNW 0.9 mph 7.0 mph 38% 0.00 in 972.0 W/m2
11:35 84.4 °F 55.2 °F 29.52 in WSW 0.9 mph 5.0 mph 37% 0.00 in 972.0 W/m2
11:40 84.4 °F 55.2 °F 29.52 in South 0.9 mph 8.0 mph 37% 0.00 in 1009.0 W/m2
11:45 83.8 °F 54.9 °F 29.52 in WSW 2.0 mph 4.0 mph 37% 0.00 in 185.0 W/m2
11:50 83.7 °F 55.4 °F 29.52 in Calm   7.0 mph 38% 0.00 in 345.0 W/m2
11:56 84.4 °F 55.9 °F 29.52 in ENE 0.9 mph 6.0 mph 38% 0.00 in 946.0 W/m2
12:01 84.9 °F 55.8 °F 29.52 in NNE 0.9 mph 4.0 mph 37% 0.00 in 230.0 W/m2
12:06 85.6 °F 55.6 °F 29.52 in Calm   7.0 mph 36% 0.00 in 1106.0 W/m2
12:11 86.4 °F 53.8 °F 29.51 in NNE 2.9 mph 7.0 mph 33% 0.00 in 1150.0 W/m2
12:16 86.7 °F 54.1 °F 29.51 in NW 4.0 mph 7.0 mph 33% 0.00 in 1165.0 W/m2
12:22 87.3 °F 53.8 °F 29.51 in NNE 0.9 mph 4.0 mph 32% 0.00 in 207.0 W/m2
12:27 87.3 °F 53.8 °F 29.51 in SE 2.0 mph 2.0 mph 32% 0.00 in 162.0 W/m2
12:32 86.9 °F 53.4 °F 29.51 in SSW 6.0 mph 6.0 mph 32% 0.00 in 221.0 W/m2
12:38 86.4 °F 53.1 °F 29.51 in NW 2.9 mph 6.0 mph 32% 0.00 in 320.0 W/m2
12:43 86.2 °F 52.9 °F 29.51 in North 4.9 mph 5.0 mph 32% 0.00 in 188.0 W/m2
12:48 85.8 °F 52.5 °F 29.51 in ESE 2.0 mph 2.0 mph 32% 0.00 in 213.0 W/m2
12:54 85.6 °F 52.3 °F 29.50 in East 2.0 mph 3.0 mph 32% 0.00 in 1227.0 W/m2
12:59 86.2 °F 52.0 °F 29.50 in ESE 2.0 mph 6.0 mph 31% 0.00 in 1171.0 W/m2
13:04 86.9 °F 51.8 °F 29.50 in SE 2.9 mph 3.0 mph 30% 0.00 in 429.0 W/m2
13:09 87.6 °F 49.5 °F 29.50 in Calm   3.0 mph 27% 0.00 in 1236.0 W/m2
13:14 88.2 °F 50.0 °F 29.50 in SE 2.9 mph 3.0 mph 27% 0.00 in 1215.0 W/m2
13:19 88.5 °F 50.4 °F 29.50 in NW 6.0 mph 6.0 mph 27% 0.00 in 1239.0 W/m2
13:24 89.8 °F 50.4 °F 29.50 in Calm   7.0 mph 26% 0.00 in 1236.0 W/m2
13:29 90.3 °F 49.6 °F 29.49 in NNE 8.9 mph 13.0 mph 25% 0.00 in 334.0 W/m2
13:34 90.3 °F 48.6 °F 29.49 in NE 4.0 mph 7.0 mph 24% 0.00 in 1139.0 W/m2
13:40 90.9 °F 49.1 °F 29.49 in NNE 4.9 mph 6.0 mph 24% 0.00 in 1192.0 W/m2
13:45 91.2 °F 48.2 °F 29.49 in North 0.9 mph 9.0 mph 23% 0.00 in 1223.0 W/m2
13:51 91.6 °F 48.6 °F 29.49 in ENE 2.0 mph 4.0 mph 23% 0.00 in 418.0 W/m2
13:56 91.0 °F 48.0 °F 29.48 in ENE 2.9 mph 7.0 mph 23% 0.00 in 301.0 W/m2
14:01 90.5 °F 48.7 °F 29.48 in ENE 2.0 mph 7.0 mph 24% 0.00 in 202.0 W/m2
14:07 90.0 °F 47.1 °F 29.48 in ESE 6.0 mph 7.0 mph 23% 0.00 in 223.0 W/m2
14:12 89.4 °F 46.8 °F 29.47 in SE 0.9 mph 1.0 mph 23% 0.00 in 213.0 W/m2
14:18 88.9 °F 46.2 °F 29.47 in East 2.0 mph 3.0 mph 23% 0.00 in 216.0 W/m2
14:23 88.5 °F 46.0 °F 29.48 in West 0.9 mph 2.0 mph 23% 0.00 in 190.0 W/m2
14:29 88.3 °F 45.9 °F 29.47 in SE 2.0 mph 4.0 mph 23% 0.00 in 225.0 W/m2
14:34 88.2 °F 44.6 °F 29.47 in WSW 2.9 mph 6.0 mph 22% 0.00 in 237.0 W/m2
14:39 87.4 °F 45.1 °F 29.47 in Calm   2.0 mph 23% 0.00 in 260.0 W/m2
14:44 87.4 °F 49.3 °F 29.47 in WNW 4.0 mph 6.0 mph 27% 0.00 in 276.0 W/m2
14:49 87.4 °F 51.3 °F 29.47 in NNE 4.0 mph 5.0 mph 29% 0.00 in 420.0 W/m2
14:54 87.3 °F 50.2 °F 29.47 in West 0.9 mph 5.0 mph 28% 0.00 in 269.0 W/m2
15:00 87.3 °F 51.1 °F 29.47 in West 4.0 mph 4.0 mph 29% 0.00 in 158.0 W/m2
15:05 86.7 °F 49.6 °F 29.47 in Calm   3.0 mph 28% 0.00 in 135.0 W/m2
15:11 86.4 °F 51.3 °F 29.47 in Calm   8.0 mph 30% 0.00 in 67.0 W/m2
15:16 85.6 °F 53.2 °F 29.48 in North 2.0 mph 5.0 mph 33% 0.00 in 56.0 W/m2
15:21 84.6 °F 52.3 °F 29.49 in NW 4.0 mph 7.0 mph 33% 0.00 in 51.0 W/m2
15:26 83.5 °F 52.2 °F 29.49 in WNW 0.9 mph 13.0 mph 34% 0.00 in 56.0 W/m2
15:31 82.4 °F 52.7 °F 29.49 in Calm   4.0 mph 36% 0.00 in 72.0 W/m2
15:36 81.9 °F 53.8 °F 29.49 in NNW 6.0 mph 14.0 mph 38% 0.00 in 93.0 W/m2
15:41 81.1 °F 55.2 °F 29.49 in North 6.0 mph 10.0 mph 41% 0.00 in 123.0 W/m2
15:46 80.2 °F 55.0 °F 29.48 in NNW 8.1 mph 11.0 mph 42% 0.00 in 149.0 W/m2
15:52 79.5 °F 55.8 °F 29.49 in NW 4.9 mph 9.0 mph 44% 0.00 in 181.0 W/m2
15:57 79.2 °F 55.9 °F 29.49 in NW 4.9 mph 8.0 mph 45% 0.00 in 323.0 W/m2
16:02 79.2 °F 56.7 °F 29.49 in North 2.0 mph 5.0 mph 46% 0.00 in 209.0 W/m2
16:07 78.8 °F 56.3 °F 29.49 in NNW 4.0 mph 9.0 mph 46% 0.00 in 179.0 W/m2
16:12 78.4 °F 56.5 °F 29.49 in WSW 2.0 mph 3.0 mph 47% 0.00 in 200.0 W/m2
16:17 78.3 °F 56.3 °F 29.50 in WNW 4.0 mph 6.0 mph 47% 0.00 in 190.0 W/m2
16:22 78.1 °F 56.8 °F 29.51 in Calm   1.0 mph 48% 0.00 in 174.0 W/m2
16:27 78.1 °F 55.6 °F 29.50 in WSW 4.9 mph 5.0 mph 46% 0.00 in 149.0 W/m2
16:32 78.1 °F 54.3 °F 29.50 in Calm   5.0 mph 44% 0.00 in 130.0 W/m2
16:38 78.1 °F 53.1 °F 29.50 in WNW 0.9 mph 4.0 mph 42% 0.00 in 120.0 W/m2
16:43 78.1 °F 53.1 °F 29.50 in Calm   4.0 mph 42% 0.00 in 118.0 W/m2
16:48 77.9 °F 52.9 °F 29.50 in Calm   3.0 mph 42% 0.00 in 120.0 W/m2
16:53 77.7 °F 53.4 °F 29.50 in Calm   3.0 mph 43% 0.00 in 135.0 W/m2
16:58 77.7 °F 53.4 °F 29.50 in West 0.9 mph 4.0 mph 43% 0.00 in 148.0 W/m2
17:03 77.7 °F 53.4 °F 29.50 in NNW 4.0 mph 4.0 mph 43% 0.00 in 165.0 W/m2
17:08 77.7 °F 52.9 °F 29.50 in Calm   3.0 mph 42% 0.00 in 185.0 W/m2
17:13 77.7 °F 53.4 °F 29.50 in North 2.0 mph 3.0 mph 43% 0.00 in 366.0 W/m2
Olympia, Windhoek, Namibia
Compliments of Weather Underground - 3 mb